Location: The Saddle
(36.8333°N, 80.3417°W)
Time: 18:58:26
(UTC-04:00)

A-11 Canister half - Pass Details

Date: 11 December 2023
Orbit: 1515 x 1684 km, 47.2° (Epoch: 02 October)

Event Time Altitude Azimuth Distance (km) Brightness Sun altitude
Rises 02:37:09 0° 292° (WNW) 4,774 - -56.4°
Reaches altitude 10° 02:40:23 10° 298° (WNW) 3,813 - -55.7°
Maximum altitude 02:49:47 49° 12° (NNE) 2,023 - -53.9°
Exits shadow 02:54:21 31° 66° (ENE) 2,587 10.3 -53.0°
Drops below altitude 10° 02:59:28 10° 85° (E) 3,926 11.6 -52.0°
Sets 03:02:51 0° 91° (E) 4,925 12.3 -51.3°
